Location: Cactus School
(34.5700°N, 118.0931°W)
Time: 03:31:45
(UTC-08:00)

Tiangong 2 - Pass Details

Date: 14 November 2017
Orbit: 386 x 392 km, 42.8° (Epoch: 25 November)

Event Time Altitude Azimuth Distance (km) Brightness Sun altitude
Rises 18:02:12 0° 286° (WNW) 2,270 6.1 -15.4°
Reaches altitude 10° 18:04:37 10° 268° (W) 1,411 5.2 -15.9°
Maximum altitude 18:07:02 20° 218° (SW) 955 3.7 -16.4°
Drops below altitude 10° 18:09:28 10° 168° (SSE) 1,402 3.9 -16.9°
Enters shadow 18:10:37 - 158° (SSE) 1,796 4.3 -17.1°
